Hourly Weather Roundup
Issued by NWS Central Illinois

Home | Current Version | Previous Version | Text Only | Print | Product List | Glossary On
Versions: 1 2 3 4 5 6 7 8 9 10 11 12 13 14 15 16 17 18 19 20 21 22 23 24 25 26 27 28 29 30 31 32 33 34 35 36 37 38 39 40 41 42 43 44 45 46 47 48 49 50
000
NZUS43 KILX 290110
HWRILX

AREA WEATHER ROUNDUP
NATIONAL WEATHER SERVICE, LINCOLN IL
800 PM CDT TUE JUL 28 2015


CITY           SKY/WX    TMP DP  RH WIND       PRES   REMARKS
BLOOMINGTON    CLOUDY    78  73  84 S5        29.96R HX  80
CHAMPAIGN      CLOUDY    77  74  90 CALM      29.94R
DANVILLE       MOCLDY    79  76  90 CALM      29.91S HX  82
DECATUR        CLOUDY    79  73  82 SE3       29.94R HX  82
EFFINGHAM      CLOUDY    79  74  86 CALM      29.95R HX  82
FLORA          MOCLDY    83  75  77 E5        29.93S HX  89
GALESBURG      MOCLDY    83  79  87 E6        29.92R HX  95
JACKSONVILLE   CLEAR     89  81  78 CALM      29.92R HX 108
LACON          CLOUDY    78  73  86 CALM      29.92R HX  80
LAWRENCEVILLE  MOCLDY    87  77  72 CALM      29.92S HX  99
LITCHFIELD     MOCLDY    83  76  77 S3        29.93R HX  92
$$


CITY           SKY/WX    TMP DP  RH WIND       PRES   REMARKS
LINCOLN        CLOUDY    81  73  76 CALM      29.93R HX  85
MACOMB         CLEAR     84  80  87 W3        29.94R HX  97
MATTOON        CLOUDY    76  73  91 SE3       29.93R
MT CARMEL AP   MOCLDY    88  77  70 NE3       29.92F HX 100
OLNEY-NOBLE AP MOCLDY    82  75  78 N3        29.93S HX  89
PARIS          MOCLDY    80  77  92 SW5       29.94R HX  85
PEORIA         MOCLDY    84  75  74 SE5       29.93R HX  92
PONTIAC        MOCLDY    79  74  85 CALM      29.95R HX  83
RANTOUL        MOCLDY    80  77  91 CALM      29.94R HX  85
ROBINSON       MOCLDY    81  77  86 CALM      29.93F HX  88
SPRINGFIELD    PTCLDY    85  76  74 SE6       29.93R HX  94
TAYLORVILLE    MOCLDY    81  75  83 SE3       29.93R HX  86
$$

...REGIONAL REPORTS...


CITY           SKY/WX    TMP DP  RH WIND       PRES   REMARKS
CHICAGO O`HARE MOCLDY    85  69  58 SW5       29.91R HX  89
KANKAKEE       MOCLDY    82  77  84 CALM      29.93R HX  90
MOLINE         MOCLDY    84  77  79 NW5       29.91R HX  94
MOUNT STERLING NOT AVBL
MOUNT VERNON   CLOUDY    81  72  74 SW3       29.93S HX  84
PITTSFIELD     CLEAR     88  81  79 CALM      29.93R HX 106
QUINCY         CLEAR     88  80  77 S3        29.91R HX 104
ROCKFORD       MOCLDY    81  72  74 S5        29.94R HX  85
$$


CITY           SKY/WX    TMP DP  RH WIND       PRES   REMARKS
BURLINGTON     PTCLDY    84  80  88 NW7       29.92  HX  97
CEDAR RAPIDS   CLOUDY    72  71  97 NE6       29.90R
DES MOINES     TSTM      75  70  84 N23G36    29.94R
KIRKSVILLE     CLEAR     85  77  77 S7        29.91F HX  95
OTTUMWA        CLOUDY    71  69  93 E15       29.89F
ST LOUIS       MOCLDY    93  74  53 S3        29.92R HX 103
$$


CITY           SKY/WX    TMP DP  RH WIND       PRES   REMARKS
TERRE HAUTE    PTCLDY    84  76  76 S3        29.93R HX  93
EVANSVILLE     CLOUDY    80  73  79 SW9       29.95R HX  84
INDIANAPOLIS   MOCLDY    83  72  69 S6        29.94R HX  88
LAFAYETTE      PTCLDY    80  76  87 CALM      29.92R HX  86
MADISON        MOCLDY    82  71  69 SW5       29.91R HX  86
MILWAUKEE      MOCLDY    81  67  62 SE8       29.92S HX  83
$$





USA.gov is the U.S. government's official web portal to all federal, state and local government web resources and services.